Alma, MI

4:46 PM EDT on July 23, 2019 (GMT -0400)
Gratiot Community

Weather History for KAMN - May, 2019

Change the Weather History Date:

Sunday, May 12, 2019

  Actual Average Record
Temperature  
Mean Temperature 50 °F -  
Max Temperature 56 °F 68 °F 85 °F (1992)
Min Temperature 44 °F 43 °F 29 °F (2013)
Degree Days  
Heating Degree Days 15    
Moisture  
Dew Point 40 °F    
Average Humidity 72    
Maximum Humidity 88    
Minimum Humidity 56    
Precipitation  
Precipitation 0.00 in - - ()
Sea Level Pressure  
Sea Level Pressure 29.89 in    
Wind  
Wind Speed 6 mph (NE)    
Max Wind Speed 15 mph    
Max Gust Speed 22 mph    
Visibility 10 miles    
Events Rain    
Averages and records for this station are not official NWS values.
T = Trace of Precipitation, MM = Missing Value Source: NWS Daily Summary

Daily Weather History Graph

Daily Weather History Graph

Search for Another Location

Airport or City:

Astronomy

May. 12, 2019 Rise Set
Actual Time 6:18 AM EDT 8:52 PM EDT
Civil Twilight 5:45 AM EDT 9:25 PM EDT
Nautical Twilight 5:05 AM EDT 10:06 PM EDT
Astronomical Twilight 4:19 AM EDT 10:52 PM EDT
Moon 1:39 PM EDT (5/12) 3:13 AM EDT (5/12)
Length of Visible Light 15h 39m
Length of Day
14h 34m
First Quarter, 57% of the Moon is Illuminated
May 12
First Quarter
May 18
Full
May 26
Last Quarter
Jun 3
New
Jun 10
First Quarter

Hourly Weather History & Observations

Time (EDT) Temp. Windchill Dew Point Humidity Pressure Visibility Wind Dir Wind Speed Gust Speed Precip Events Conditions
12:15 AM 44.8 °F - 38.5 °F 79% 30.03 in 10.0 mi Calm Calm - N/A   Overcast
12:35 AM 44.6 °F - 38.5 °F 79% 30.02 in 10.0 mi Calm Calm - N/A   Overcast
12:36 AM 44.6 °F - 38.5 °F 79% 30.02 in 10.0 mi Calm Calm - N/A   Overcast
12:55 AM 45.0 °F 43.5 °F 38.3 °F 77% 30.01 in 10.0 mi North 3.5 mph - N/A   Overcast
1:15 AM 44.8 °F - 37.9 °F 77% 30.00 in 10.0 mi Calm Calm - N/A   Overcast
1:35 AM 44.8 °F - 38.7 °F 79% 29.99 in 10.0 mi Calm Calm - N/A   Overcast
1:55 AM 45.1 °F 43.7 °F 38.1 °F 76% 29.98 in 10.0 mi NNE 3.5 mph - N/A   Overcast
2:15 AM 45.5 °F 43.2 °F 37.4 °F 73% 29.97 in 10.0 mi NE 4.6 mph - N/A   Overcast
2:35 AM 45.5 °F 44.2 °F 38.3 °F 76% 29.97 in 10.0 mi NE 3.5 mph - N/A   Overcast
2:36 AM 45.5 °F 44.2 °F 38.3 °F 76% 29.97 in 10.0 mi ENE 3.5 mph - N/A   Overcast
2:55 AM 45.1 °F 42.8 °F 38.3 °F 77% 29.96 in 10.0 mi NE 4.6 mph - N/A   Overcast
2:56 AM 45.1 °F 42.0 °F 38.3 °F 77% 29.96 in 10.0 mi NE 5.8 mph - N/A   Overcast
3:15 AM 45.5 °F 43.2 °F 37.8 °F 74% 29.95 in 10.0 mi NE 4.6 mph - N/A   Overcast
3:16 AM 45.5 °F 43.2 °F 37.8 °F 74% 29.95 in 10.0 mi NE 4.6 mph - N/A   Overcast
3:35 AM 45.5 °F 41.8 °F 37.4 °F 73% 29.95 in 10.0 mi NE 6.9 mph - N/A   Overcast
3:55 AM 45.5 °F 42.5 °F 37.4 °F 73% 29.94 in 10.0 mi NE 5.8 mph - N/A   Overcast
4:15 AM 45.1 °F 42.0 °F 36.7 °F 72% 29.94 in 10.0 mi NE 5.8 mph - N/A   Overcast
4:35 AM 45.0 °F 41.8 °F 36.9 °F 73% 29.94 in 10.0 mi NNE 5.8 mph - N/A   Overcast
4:55 AM 45.0 °F 41.2 °F 35.8 °F 70% 29.94 in 10.0 mi NNE 6.9 mph - N/A   Overcast
5:15 AM 45.0 °F 41.2 °F 35.1 °F 68% 29.93 in 10.0 mi NNE 6.9 mph - N/A   Overcast
5:16 AM 45.0 °F 41.2 °F 35.2 °F 69% 29.93 in 10.0 mi NNE 6.9 mph - N/A   Overcast
5:35 AM 45.0 °F 40.1 °F 35.1 °F 68% 29.92 in 10.0 mi North 9.2 mph - N/A   Overcast
5:36 AM 45.0 °F 40.1 °F 35.1 °F 68% 29.92 in 10.0 mi North 9.2 mph - N/A   Overcast
5:55 AM 45.0 °F 41.8 °F 34.9 °F 68% 29.93 in 10.0 mi NNE 5.8 mph - N/A   Overcast
5:56 AM 45.0 °F 41.8 °F 34.9 °F 68% 29.93 in 10.0 mi NNE 5.8 mph - N/A   Overcast
6:15 AM 45.1 °F 42.0 °F 34.7 °F 67% 29.92 in 10.0 mi NNE 5.8 mph - N/A   Overcast
6:35 AM 44.4 °F 41.2 °F 34.7 °F 69% 29.92 in 10.0 mi NNE 5.8 mph - N/A   Overcast
6:36 AM 44.4 °F 40.5 °F 34.7 °F 69% 29.92 in 10.0 mi NNE 6.9 mph - N/A   Overcast
6:55 AM 44.8 °F 41.0 °F 35.1 °F 69% 29.92 in 10.0 mi NNE 6.9 mph - N/A   Overcast
7:15 AM 44.8 °F 40.4 °F 35.1 °F 69% 29.92 in 10.0 mi NE 8.1 mph - N/A   Overcast
7:35 AM 45.3 °F 42.3 °F 36.3 °F 71% 29.92 in 10.0 mi NE 5.8 mph - N/A   Overcast
7:55 AM 46.2 °F 42.7 °F 36.9 °F 70% 29.92 in 10.0 mi NE 6.9 mph - N/A   Overcast
8:15 AM 46.6 °F - 37.4 °F 70% 29.92 in 10.0 mi NE 8.1 mph - N/A   Overcast
8:16 AM 46.6 °F - 37.6 °F 71% 29.92 in 10.0 mi NE 8.1 mph - N/A   Overcast
8:35 AM 47.3 °F - 38.5 °F 71% 29.92 in 10.0 mi NE 6.9 mph - N/A   Overcast
8:36 AM 47.3 °F - 38.5 °F 71% 29.92 in 10.0 mi NE 8.1 mph - N/A   Overcast
8:55 AM 48.6 °F - 40.3 °F 73% 29.92 in 10.0 mi NE 9.2 mph - N/A   Overcast
8:56 AM 48.6 °F - 40.3 °F 73% 29.92 in 10.0 mi NE 10.4 mph - N/A   Overcast
9:15 AM 50.4 °F - 41.5 °F 72% 29.91 in 10.0 mi NE 11.5 mph 16.1 mph N/A   Overcast
9:16 AM 50.4 °F - 41.5 °F 72% 29.91 in 10.0 mi NE 11.5 mph 16.1 mph N/A   Overcast
9:35 AM 49.5 °F - 41.0 °F 73% 29.91 in 10.0 mi NE 10.4 mph 16.1 mph N/A   Overcast
9:55 AM 50.4 °F - 41.7 °F 72% 29.91 in 10.0 mi ENE 10.4 mph - N/A   Overcast
9:56 AM 50.4 °F - 41.7 °F 72% 29.91 in 10.0 mi NE 9.2 mph - N/A   Overcast
10:15 AM 51.1 °F - 41.2 °F 69% 29.91 in 10.0 mi ENE 12.7 mph 16.1 mph N/A   Overcast
10:35 AM 51.6 °F - 40.6 °F 66% 29.90 in 10.0 mi East 11.5 mph - N/A   Overcast
10:55 AM 51.4 °F - 40.3 °F 66% 29.90 in 10.0 mi ENE 11.5 mph - N/A   Overcast
11:15 AM 52.0 °F - 40.3 °F 64% 29.89 in 10.0 mi ENE 11.5 mph 18.4 mph N/A   Overcast
11:35 AM 52.7 °F - 40.3 °F 63% 29.89 in 10.0 mi ENE 9.2 mph - N/A   Overcast
11:55 AM 53.1 °F - 40.5 °F 62% 29.89 in 10.0 mi ENE 9.2 mph - N/A   Overcast
12:15 PM 54.1 °F - 40.8 °F 61% 29.88 in 10.0 mi NE 10.4 mph - N/A   Overcast
12:35 PM 54.7 °F - 39.7 °F 57% 29.87 in 10.0 mi NE 10.4 mph - N/A   Overcast
12:55 PM 55.6 °F - 41.2 °F 58% 29.87 in 10.0 mi NE 11.5 mph - N/A   Overcast
1:15 PM 56.1 °F - 40.6 °F 56% 29.87 in 10.0 mi ENE 12.7 mph 18.4 mph N/A   Overcast
1:16 PM 56.1 °F - 40.6 °F 56% 29.86 in 10.0 mi NE 11.5 mph 18.4 mph N/A   Overcast
1:35 PM 55.6 °F - 40.5 °F 57% 29.86 in 10.0 mi NE 13.8 mph 18.4 mph N/A   Overcast
1:36 PM 55.6 °F - 40.3 °F 56% 29.86 in 10.0 mi NE 11.5 mph 18.4 mph N/A   Overcast
1:55 PM 54.7 °F - 40.1 °F 58% 29.86 in 10.0 mi NE 11.5 mph - N/A   Overcast
1:56 PM 54.7 °F - 40.1 °F 58% 29.86 in 10.0 mi NE 13.8 mph 18.4 mph N/A   Overcast
2:15 PM 54.7 °F - 40.5 °F 59% 29.86 in 10.0 mi NE 12.7 mph 16.1 mph N/A   Overcast
2:35 PM 54.3 °F - 41.0 °F 61% 29.86 in 10.0 mi NE 10.4 mph 18.4 mph N/A   Overcast
2:55 PM 54.5 °F - 41.0 °F 60% 29.85 in 10.0 mi NE 12.7 mph 18.4 mph N/A   Overcast
2:56 PM 54.5 °F - 41.0 °F 60% 29.85 in 10.0 mi NE 15.0 mph 19.6 mph N/A   Overcast
3:35 PM 54.0 °F - 40.6 °F 61% 29.85 in 10.0 mi NE 12.7 mph 21.9 mph N/A   Overcast
3:55 PM 53.1 °F - 40.1 °F 61% 29.85 in 10.0 mi NE 11.5 mph - N/A   Overcast
3:56 PM 53.1 °F - 40.1 °F 61% 29.85 in 10.0 mi NE 11.5 mph - N/A   Overcast
4:15 PM 52.2 °F - 39.9 °F 63% 29.85 in 10.0 mi NE 11.5 mph 18.4 mph N/A   Overcast
4:16 PM 52.2 °F - 39.9 °F 63% 29.85 in 10.0 mi NE 12.7 mph 18.4 mph N/A   Overcast
4:35 PM 51.8 °F - 40.1 °F 64% 29.85 in 10.0 mi NE 10.4 mph 16.1 mph N/A   Overcast
4:36 PM 51.8 °F - 40.1 °F 64% 29.85 in 10.0 mi NE 9.2 mph 16.1 mph N/A   Overcast
4:55 PM 51.8 °F - 40.3 °F 65% 29.84 in 10.0 mi NE 12.7 mph - N/A   Overcast
5:15 PM 51.1 °F - 40.6 °F 67% 29.84 in 10.0 mi NE 12.7 mph 18.4 mph N/A   Overcast
5:35 PM 50.7 °F - 41.0 °F 69% 29.84 in 10.0 mi NE 13.8 mph 18.4 mph N/A   Overcast
5:55 PM 50.0 °F - 41.7 °F 73% 29.84 in 10.0 mi NE 15.0 mph 18.4 mph N/A Rain Light Rain
5:56 PM 50.0 °F - 41.7 °F 73% 29.84 in 10.0 mi NE 13.8 mph 18.4 mph N/A Rain Light Rain
6:15 PM 49.1 °F - 41.9 °F 76% 29.84 in 10.0 mi NE 12.7 mph 19.6 mph N/A Rain Light Rain
6:16 PM 49.1 °F - 41.9 °F 76% 29.84 in 10.0 mi NE 13.8 mph 19.6 mph N/A Rain Light Rain
6:35 PM 48.4 °F - 41.7 °F 78% 29.84 in 10.0 mi NE 11.5 mph 17.3 mph N/A Rain Light Rain
6:36 PM 48.4 °F - 41.7 °F 78% 29.84 in 10.0 mi NNE 10.4 mph 17.3 mph N/A Rain Light Rain
6:55 PM 47.7 °F - 42.1 °F 81% 29.85 in 5.0 mi NNE 10.4 mph 17.3 mph N/A Rain Light Rain
6:56 PM 47.7 °F - 42.3 °F 82% 29.85 in 5.0 mi NE 10.4 mph - N/A Rain Light Rain
7:15 PM 47.5 °F - 43.2 °F 85% 29.85 in 10.0 mi NNE 5.8 mph - N/A Rain Light Rain
7:35 PM 47.3 °F - 43.5 °F 87% 29.84 in 4.0 mi NNE 8.1 mph - N/A   Overcast
7:55 PM 47.3 °F - 43.7 °F 87% 29.84 in 10.0 mi NNE 5.8 mph - N/A   Drizzle
8:15 PM 47.3 °F - 43.5 °F 87% 29.84 in 10.0 mi North 8.1 mph - N/A   Light Drizzle
8:35 PM 47.3 °F - 43.5 °F 87% 29.84 in 10.0 mi North 5.8 mph - N/A   Overcast
8:55 PM 47.5 °F - 43.3 °F 86% 29.84 in 10.0 mi NNE 5.8 mph - N/A   Overcast
9:15 PM 47.5 °F - 43.0 °F 84% 29.83 in 10.0 mi NNE 5.8 mph - N/A   Overcast
9:16 PM 47.5 °F - 43.0 °F 84% 29.83 in 10.0 mi NNE 5.8 mph - N/A   Overcast
9:35 PM 47.8 °F - 42.8 °F 83% 29.84 in 10.0 mi NE 8.1 mph - N/A   Overcast
9:36 PM 47.8 °F - 42.8 °F 83% 29.84 in 10.0 mi NNE 8.1 mph - N/A   Overcast
9:55 PM 48.2 °F - 43.0 °F 82% 29.84 in 10.0 mi NE 6.9 mph - N/A   Overcast
10:15 PM 48.2 °F - 43.7 °F 84% 29.84 in 10.0 mi NE 9.2 mph - N/A   Overcast
10:16 PM 48.0 °F - 43.7 °F 85% 29.84 in 10.0 mi NE 9.2 mph - N/A   Overcast
10:35 PM 47.8 °F - 43.7 °F 86% 29.84 in 10.0 mi NE 6.9 mph - N/A   Overcast
10:55 PM 47.8 °F - 43.9 °F 86% 29.84 in 10.0 mi NE 9.2 mph - N/A   Overcast
11:15 PM 47.8 °F - 43.9 °F 86% 29.83 in 10.0 mi NE 6.9 mph - N/A   Overcast
11:35 PM 47.5 °F - 44.1 °F 88% 29.83 in 10.0 mi NNE 9.2 mph - N/A   Overcast